Location: Arboyeti
(42.1122°N, 44.6017°E)
Time: 22:08:06
(UTC+00:00)

N. Korean satellite - Pass Details

Date: 01 October 2021
Orbit: 450 x 495 km, 97.3° (Epoch: 21 October)

Event Time Altitude Azimuth Distance (km) Brightness Sun altitude
Rises 02:16:46 0° 12° (NNE) 2,548 10.4 -8.6°
Reaches altitude 10° 02:18:49 10° 14° (NNE) 1,671 9.5 -8.2°
Maximum altitude 02:22:25 82° 102° (ESE) 498 6.7 -7.5°
Drops below altitude 10° 02:26:03 10° 190° (S) 1,678 9.2 -6.9°
Sets 02:28:07 0° 191° (SSW) 2,559 10.1 -6.5°
